Location: Montreal
(45.5000°N, 73.5833°W)
Time: 01:00:23
(UTC-04:00)

Tiangong - Visible Passes

Search period start: 10 June 2023 00:00
Search period end: 20 June 2023 00:00
Orbit: 386 x 390 km, 41.5° (Epoch: 09 June)

Date Brightness Start Highest point End Pass type
(mag) Time Alt. Az. Time Alt. Az. Time Alt. Az.
10 Jun -0.3 02:24:43 21° ESE 02:24:43 21° ESE 02:26:07 10° ESE visible
10 Jun -1.3 03:57:00 11° WSW 03:59:42 31° SSW 04:02:35 10° SE visible
11 Jun -1.5 03:01:16 37° S 03:01:16 37° S 03:04:06 10° ESE visible
12 Jun -1.0 03:38:09 21° SW 03:39:02 24° SSW 03:41:41 10° SE visible
13 Jun 0.6 02:43:16 10° SE 02:43:16 10° SE 02:43:17 10° SE visible
13 Jun 0.0 04:15:38 10° SW 04:16:44 12° SSW 04:17:54 10° S visible
15 Jun -0.8 22:05:17 10° SSW 22:07:44 21° SSE 22:08:17 20° SE visible
16 Jun -1.5 22:42:29 10° WSW 22:45:17 34° S 22:45:17 34° S visible
17 Jun -1.1 21:43:49 10° SW 21:46:36 28° SSE 21:49:23 10° ESE visible
17 Jun -0.6 23:20:08 10° WSW 23:21:45 24° SW 23:21:45 24° SW visible
18 Jun -1.6 22:21:15 10° WSW 22:24:14 39° S 22:25:37 24° SE visible
19 Jun -1.4 21:22:23 10° WSW 21:25:20 35° S 21:28:16 10° ESE visible
19 Jun -1.3 22:58:57 10° WSW 23:01:32 34° SSW 23:01:32 34° SSW visible
